This is the latest recevied weather packets stored in our database for station/object KC3ROS. If no packets are shown the sender has not sent any weather packets the latest 10 day(s).
| Time | Temp. | Humidity | Pressure | Rain* | Wind** | Luminosity | Snow |
|---|---|---|---|---|---|---|---|
| 1777941906 | 18.89° C | 62% | 1005.7 hPa | 0 mm | - | 0 W/m² | - |
| 1777941603 | 18.89° C | 62% | 1005.8 hPa | 0 mm | - | 0 W/m² | - |
| 1777941300 | 18.89° C | 62% | 1005.6 hPa | 0 mm | - | 0 W/m² | - |
| 1777940997 | 18.89° C | 62% | 1005.8 hPa | 0 mm | - | 0 W/m² | - |
| 1777940692 | 19.44° C | 61% | 1005.4 hPa | 0 mm | - | 1 W/m² | - |
| 1777940391 | 19.44° C | 61% | 1005.4 hPa | 0 mm | - | 2 W/m² | - |
| 1777940088 | 18.89° C | 61% | 1005.8 hPa | 0 mm | - | 3 W/m² | - |
| 1777939785 | 19.44° C | 61% | 1005.2 hPa | 0 mm | - | 4 W/m² | - |
| 1777939483 | 18.89° C | 61% | 1005.6 hPa | 0 mm | - | 6 W/m² | - |
| 1777939180 | 18.89° C | 63% | 1005.3 hPa | 0 mm | - | 9 W/m² | - |
| 1777938877 | 18.89° C | 64% | 1005.6 hPa | 0 mm | - | 12 W/m² | - |
| 1777938573 | 19.44° C | 63% | 1005.2 hPa | 0 mm | - | 14 W/m² | - |
| 1777938271 | 19.44° C | 62% | 1005.6 hPa | 0 mm | - | 20 W/m² | - |
| 1777937967 | 19.44° C | 63% | 1005.2 hPa | 0 mm | - | 25 W/m² | - |
| 1777937663 | 19.44° C | 63% | 1005.6 hPa | 0 mm | - | 31 W/m² | - |
| 1777937360 | 19.44° C | 64% | 1005.6 hPa | 0 mm | - | 28 W/m² | - |
| 1777937057 | 19.44° C | 64% | 1005.7 hPa | 0 mm | - | 33 W/m² | - |
| 1777936754 | 19.44° C | 69% | 1005.8 hPa | 0 mm | - | 49 W/m² | - |
| 1777936450 | 18.89° C | 67% | 1005.7 hPa | 0 mm | - | 85 W/m² | - |
| 1777936147 | 18.89° C | 67% | 1006.1 hPa | 0 mm | - | 54 W/m² | - |
| 1777935844 | 19.44° C | 68% | 1006.1 hPa | 0 mm | - | 24 W/m² | - |
| 1777935543 | 20° C | 59% | 1006.1 hPa | 0 mm | - | 38 W/m² | - |
| 1777935239 | 20° C | 58% | 1006 hPa | 0 mm | - | 31 W/m² | - |
| 1777934937 | 20° C | 59% | 1005.9 hPa | 0 mm | - | 33 W/m² | - |
| 1777934633 | 19.44° C | 65% | 1006 hPa | 0 mm | - | 33 W/m² | - |
* Rain latest hour (hover to see other rain measurements)
** Current wind speed in m/s (hover to see current wind gust speed)